loading
|

THOR ABLESTAR DEB, 652

Orbit data source: Space-Track

THOR ABLESTAR DEB, 652 is space debris in LEO originally from a launch on Thu, 29 Jun 1961 UTC launched from the Air Force Eastern Test Range (AFETR). Debris objects in space refer to the collection of defunct objects orbiting the Earth. Examples of debris include non-operational satellites, rocket bodies, and fragments generated from explosions, collisions, or faulty payload assembly.

Loading next visibility...
Loading greatness...
THOR ABLESTAR DEB details
Identifier
652, 1961-015HD
Orbit
LEO
Last TLE update10 hours ago
Origin
Flag of USUSAF SSD (US)
ManufacturerUnknown
Mission statusUnknown
MissionUnknown
Bus & MotorUnknown
MassUnknown
Launch date (UTC)
1961-06-29 (63 years ago)
Launch vehicleUnknown
Launch site
Air Force Eastern Test Range (AFETR)
Object type
Payload
Rocket body
Debris
Radar Cross SectionSmall (<0.1 m²)

Expand to show TLE details & history

TLE from 10 hours ago
0 THOR ABLESTAR DEB
1   652U 61015HD  24251.31325148  .00006926  00000-0  35658-2 0  9999
2   652  66.7086 325.4387 0066855 101.7954 259.0645 14.14547432202467
Epoch: 2024-09-07T07:31Z
Definitive object data (Epoch: 2024-09-07T07:31:04.927Z)
Latitude-0.0001°
Longitude-134.2051°
Altitude855.416 km
Speed7.42 km/s
True Right ascension21h 41m 45s
True Declination0° 00' 00"
Sunlit
Object was in full shadow at TLE epoch
Predictive object data (real-time)
Latitude13.61746°
Longitude-129.3393°
Altitude842.016 km
Speed7.435 km/s
Apparent Right ascension21h 58m 35s
Apparent Declination-11° 17' 55"
Sunlit
Object is in full shadow
Predictive observer data (real-time)
Local Sidereal Time09:54:50
Azimuth358.079° N
Elevation-61.37°
Doppler factor1
Orbital elements
Apogee890.51 km
Perigee793.966 km
Semi-major axis7,220.375 km
Eccentricity0.0066855
Inclination66.7086°
RAAN325.4387°
Arg. of periapsis101.7954°
True anomaly258.31352°
Mean anomaly259.0645°
Eccentric anomaly258.68889°
Mean motion3.53756 °/min
BSTAR0.0035658
Period101.77 mins
No data available

THOR ABLESTAR DEB Visibility forecast

Observer location: 39.9160978°, -105.1181434

THOR ABLESTAR DEB is not visible in the next 10 days
Span
Click to sort rows by Start time (UTC) header in descending order
Start Az.
Max El. time (UTC)
Max El. Az.
Max El.
End time (UTC)
End Az.